Hondo, TX

1:11 AM CDT on April 26, 2017 (GMT -0500)
Hondo Municipal

Weather History for KHDO - January, 2013

Change the Weather History Date:

Thursday, January 24, 2013

  Actual Average Record
Temperature  
Mean Temperature 62 °F -  
Max Temperature 79 °F 63 °F 84 °F (2017)
Min Temperature 46 °F 39 °F 24 °F (2003)
Degree Days  
Heating Degree Days 2    
Growing Degree Days 12 (Base 50)    
Moisture  
Dew Point 55 °F    
Average Humidity 84    
Maximum Humidity 100    
Minimum Humidity 48    
Precipitation  
Precipitation 0.00 in - - ()
Sea Level Pressure  
Sea Level Pressure 30.22 in    
Wind  
Wind Speed 3 mph (South)    
Max Wind Speed 9 mph    
Max Gust Speed -    
Visibility 7 miles    
Events Fog    
Averages and records for this station are not official NWS values.
T = Trace of Precipitation, MM = Missing Value Source: NWS Daily Summary

Daily Weather History Graph

Daily Weather History Graph

Search for Another Location

Airport or City:

Trip Planner

Search our weather history database for the weather conditions in past years. The results will help you decide how hot, cold, wet, or windy it might be!

Date:

Astronomy

Jan. 24, 2013 Rise Set
Actual Time 7:29 AM CST 6:08 PM CST
Civil Twilight 7:04 AM CST 6:33 PM CST
Nautical Twilight 6:35 AM CST 7:02 PM CST
Astronomical Twilight 6:07 AM CST 7:30 PM CST
Moon 4:14 PM CST (1/24) 5:25 AM CST (1/24)
Length of Visible Light 11h 29m
Length of Day
10h 38m
Waxing Gibbous, 94% of the Moon is Illuminated
Jan 24
Waxing Gibbous
Jan 26
Full
Feb 3
Last Quarter
Feb 10
New
Feb 17
First Quarter

Hourly Weather History & Observations

Time (CST) Temp. Windchill Dew Point Humidity Pressure Visibility Wind Dir Wind Speed Gust Speed Precip Events Conditions
12:51 AM 50.0 °F - 45.0 °F 83% 30.25 in 10.0 mi NNE 3.5 mph - N/A   Clear
1:51 AM 51.1 °F - 46.0 °F 83% 30.23 in 10.0 mi Calm Calm - N/A   Clear
2:51 AM 48.0 °F - 44.1 °F 86% 30.23 in 10.0 mi North 3.5 mph - N/A   Clear
3:51 AM 46.9 °F - 44.1 °F 90% 30.22 in 10.0 mi NNE 5.8 mph - N/A   Clear
4:28 AM 46.4 °F 43.5 °F 44.6 °F 93% 30.25 in 10.0 mi North 5.8 mph - N/A   Partly Cloudy
4:40 AM 46.4 °F 43.5 °F 44.6 °F 93% 30.25 in 10.0 mi North 5.8 mph - N/A   Mostly Cloudy
4:51 AM 48.9 °F - 46.0 °F 90% 30.23 in 10.0 mi North 5.8 mph - N/A   Overcast
5:37 AM 53.6 °F - 51.8 °F 94% 30.25 in 1.8 mi Calm Calm - N/A   Overcast
5:40 AM 53.6 °F - 51.8 °F 94% 30.25 in 0.8 mi Calm Calm - N/A   Mist
5:51 AM 53.1 °F - 52.0 °F 96% 30.23 in 0.5 mi Calm Calm - N/A Fog Fog
6:51 AM 55.9 °F - 55.9 °F 100% 30.24 in 0.2 mi Calm Calm - N/A Fog Fog
7:51 AM 59.0 °F - 57.9 °F 96% 30.25 in 0.2 mi WSW 3.5 mph - N/A Fog Fog
8:51 AM 60.1 °F - 59.0 °F 96% 30.26 in 0.2 mi Calm Calm - N/A Fog Fog
9:22 AM 60.8 °F - 59.0 °F 94% 30.29 in 1.2 mi SSW 3.5 mph - N/A   Overcast
9:40 AM 60.8 °F - 59.0 °F 94% 30.30 in 0.8 mi South 4.6 mph - N/A   Overcast
9:51 AM 60.1 °F - 60.1 °F 100% 30.28 in 0.5 mi South 4.6 mph - N/A Fog Fog
9:58 AM 60.8 °F - 59.0 °F 94% 30.30 in 1.2 mi SW 4.6 mph - N/A   Overcast
10:28 AM 60.8 °F - 60.8 °F 100% 30.30 in 2.0 mi SSW 3.5 mph - N/A   Overcast
10:35 AM 60.8 °F - 60.8 °F 100% 30.30 in 3.0 mi Calm Calm - N/A   Overcast
10:51 AM 60.1 °F - 60.1 °F 100% 30.28 in 4.0 mi Calm Calm - N/A   Overcast
11:51 AM 62.1 °F - 60.1 °F 93% 30.26 in 8.0 mi Variable 3.5 mph - N/A   Overcast
12:01 PM 62.6 °F - 60.8 °F 94% 30.28 in 8.0 mi West 3.5 mph - N/A   Overcast
12:36 PM 64.4 °F - 60.8 °F 88% 30.26 in 10.0 mi SW 4.6 mph - N/A   Overcast
12:51 PM 66.9 °F - 60.1 °F 79% 30.22 in 10.0 mi SW 5.8 mph - N/A   Overcast
1:32 PM 69.8 °F - 60.8 °F 73% 30.21 in 10.0 mi Calm Calm - N/A   Partly Cloudy
1:51 PM 71.1 °F - 60.1 °F 68% 30.18 in 10.0 mi Variable 5.8 mph - N/A   Clear
2:51 PM 73.9 °F - 60.1 °F 62% 30.15 in 10.0 mi South 3.5 mph - N/A   Clear
3:51 PM 75.9 °F - 59.0 °F 56% 30.12 in 10.0 mi South 5.8 mph - N/A   Clear
4:51 PM 79.0 °F - 57.9 °F 48% 30.11 in 10.0 mi South 6.9 mph - N/A   Clear
5:51 PM 75.0 °F - 57.0 °F 53% 30.11 in 10.0 mi SE 4.6 mph - N/A   Clear
6:51 PM 68.0 °F - 55.0 °F 63% 30.12 in 10.0 mi SE 4.6 mph - N/A   Clear
7:51 PM 63.0 °F - 53.1 °F 70% 30.12 in 10.0 mi Calm Calm - N/A   Clear
8:51 PM 57.9 °F - 51.1 °F 78% 30.14 in 10.0 mi NNE 4.6 mph - N/A   Clear
9:51 PM 57.0 °F - 48.9 °F 74% 30.14 in 10.0 mi ESE 3.5 mph - N/A   Clear
10:51 PM 62.1 °F - 54.0 °F 75% 30.14 in 10.0 mi SSE 9.2 mph - N/A   Clear
11:51 PM 55.9 °F - 51.1 °F 84% 30.15 in 10.0 mi Calm Calm - N/A   Clear